DW7875 Weather Reports


time (UTC)temp
F
wind
direction
speed
knots
gust
knots
rain 1hr
in
rain 24hr
in
rain mn
in
humidity
%
barometer
mb
20260507081530 55 48 1.7 6.1 0.00 0.16 0.12 83 1010.4
20260507080021 56 346 0.0 2.6 0.00 0.16 0.12 84 1010.3
20260507074516 56 352 0.9 5.2 0.00 0.16 0.12 84 1010.0
20260507073015 56 7 1.7 4.3 0.00 0.16 0.12 83 1009.9
20260507071514 56 304 0.9 5.2 0.00 0.16 0.12 83 1009.8
20260507070013 57 65 1.7 7.8 0.00 0.16 0.12 82 1009.8
20260507064508 57 1 1.7 9.6 0.01 0.16 0.12 82 1009.2
20260507063006 58 347 0.9 5.2 0.04 0.16 0.12 83 1008.6
20260507061506 58 4 0.9 2.6 0.09 0.16 0.12 80 1008.7
20260507060003 59 16 0.0 3.5 0.12 0.16 0.12 78 1009.4
20260507054609 59 27 0.0 1.7 0.11 0.15 0.11 75 1009.7
20260507053056 60 4 1.7 3.5 0.08 0.12 0.08 72 1008.9
20260507051554 61 213 0.0 4.3 0.03 0.07 0.03 68 1009.7
20260507050047 62 10 0.9 5.2 0.00 0.04 0.00 66 1009.7
20260507044544 64 11 1.7 7.0 0.00 0.04 0.00 66 1009.6
20260507043042 65 309 0.0 1.7 0.00 0.04 0.00 71 1009.5
20260507041550 64 314 0.9 2.6 0.00 0.04 0.00 74 1009.1
20260507040034 64 46 0.0 1.7 0.00 0.04 0.00 78 1009.0
20260507034536 63 276 0.0 1.7 0.00 0.04 0.04 78 1008.8
20260507033035 63 286 0.0 0.0 0.00 0.04 0.04 77 1008.6
20260507031533 63 286 0.0 0.0 0.00 0.04 0.04 76 1008.5
20260507030031 63 286 0.0 0.0 0.00 0.04 0.04 76 1008.4
20260507024531 63 286 0.0 0.9 0.00 0.04 0.04 76 1008.3
20260507023031 63 286 0.0 0.9 0.00 0.04 0.04 75 1008.4
20260507021529 63 286 0.0 0.9 0.00 0.04 0.04 73 1008.6
20260507020029 63 286 0.0 0.9 0.00 0.04 0.04 73 1008.5
20260507014546 63 286 0.0 0.0 0.00 0.04 0.04 71 1008.6
20260507013040 63 286 0.0 0.0 0.00 0.04 0.04 70 1008.6
20260507011535 64 286 0.0 0.0 0.00 0.04 0.04 69 1009.0
20260507010032 64 286 0.0 0.0 0.00 0.04 0.04 68 1008.7
20260507004524 65 286 0.0 0.0 0.00 0.04 0.04 66 1008.2
20260507003023 66 286 0.0 0.0 0.00 0.04 0.04 66 1008.4
20260507001523 67 286 0.0 0.0 0.00 0.04 0.04 65 1008.3
20260507000028 68 286 0.0 0.0 0.00 0.04 0.04 63 1008.1
20260506234522 68 286 0.0 0.0 0.00 0.04 0.04 63 1008.0
20260506233023 69 286 0.0 0.0 0.00 0.04 0.04 62 1007.9
20260506231521 69 286 0.0 0.0 0.00 0.04 0.04 62 1007.9
20260506230020 69 287 0.0 2.6 0.00 0.04 0.04 61 1007.6
20260506224522 69 193 0.9 3.5 0.00 0.04 0.04 60 1007.7
20260506223019 69 211 0.9 5.2 0.00 0.04 0.04 60 1007.7
20260506221520 70 208 0.9 4.3 0.00 0.04 0.04 60 1007.8
20260506220018 70 250 0.9 3.5 0.00 0.04 0.04 60 1007.9
20260506214517 70 197 0.9 4.3 0.00 0.04 0.04 60 1007.7
20260506213017 70 226 0.9 4.3 0.00 0.04 0.04 59 1007.6
20260506211516 70 246 1.7 6.1 0.00 0.04 0.04 59 1007.5
20260506210016 70 175 0.9 3.5 0.00 0.04 0.04 60 1007.3
20260506204517 70 226 1.7 7.8 0.00 0.04 0.04 60 1007.2
20260506203014 69 177 2.6 5.2 0.00 0.04 0.04 60 1007.2
20260506201513 69 185 1.7 9.6 0.00 0.04 0.04 60 1007.1
20260506200013 69 247 2.6 9.6 0.00 0.04 0.04 60 1007.2
20260506194512 69 219 2.6 6.1 0.00 0.04 0.04 61 1007.4
20260506193009 69 209 1.7 6.1 0.00 0.04 0.04 61 1007.7
20260506191510 69 215 2.6 4.3 0.00 0.04 0.04 60 1007.8
20260506190007 69 210 2.6 6.1 0.00 0.04 0.04 59 1007.8
20260506184505 69 200 0.9 9.6 0.00 0.04 0.04 59 1007.8
20260506183006 69 206 2.6 9.6 0.00 0.04 0.04 59 1008.2
20260506181503 69 78 2.6 8.7 0.00 0.04 0.04 59 1008.5
20260506180107 69 169 1.7 8.7 0.00 0.04 0.04 60 1008.7
20260506174604 68 221 1.7 9.6 0.00 0.04 0.04 61 1008.9
20260506173123 68 240 2.6 6.1 0.00 0.04 0.04 62 1008.9
20260506171602 67 86 2.6 8.7 0.00 0.04 0.04 64 1008.8
20260506170057 66 246 1.7 7.0 0.00 0.04 0.04 66 1008.9
20260506164555 65 210 1.7 7.0 0.01 0.04 0.04 67 1009.1
20260506163055 65 166 3.5 8.7 0.01 0.04 0.04 68 1009.3
20260506161556 64 195 0.9 4.3 0.02 0.04 0.04 72 1009.3
20260506154547 64 153 2.6 9.6 0.01 0.03 0.03 68 1009.7
20260506153046 64 174 1.7 6.1 0.02 0.03 0.03 70 1010.1
20260506151545 64 218 0.9 7.8 0.01 0.02 0.02 70 1010.3
20260506150043 63 213 0.0 6.1 0.02 0.02 0.02 69 1010.3
20260506144541 63 169 0.9 6.1 0.02 0.02 0.02 67 1010.5
20260506143039 64 217 2.6 6.1 0.01 0.01 0.01 65 1010.4
20260506141537 64 226 2.6 6.1 0.00 0.00 0.00 63 1010.4
20260506140042 66 154 1.7 5.2 0.00 0.00 0.00 60 1010.5
20260506134606 66 235 0.9 3.5 0.00 0.00 0.00 57 1010.5
20260506133034 66 227 2.6 8.7 0.00 0.00 0.00 56 1010.6
20260506131533 66 247 0.9 7.0 0.00 0.00 0.00 56 1010.3
20260506130033 66 183 1.7 7.0 0.00 0.00 0.00 56 1010.3
20260506124532 66 179 0.9 6.1 0.00 0.00 0.00 56 1010.2
20260506123033 66 225 1.7 6.1 0.00 0.00 0.00 56 1010.3
20260506121531 66 212 1.7 7.8 0.00 0.00 0.00 56 1010.4
20260506120030 66 136 1.7 7.8 0.00 0.00 0.00 56 1010.2
20260506114535 66 172 2.6 8.7 0.00 0.00 0.00 57 1010.2
20260506113033 65 205 1.7 10.4 0.00 0.00 0.00 58 1010.1
20260506111528 65 210 1.7 7.8 0.00 0.00 0.00 59 1010.0
20260506110029 65 220 2.6 7.8 0.00 0.00 0.00 59 1010.0
20260506104526 64 210 2.6 7.0 0.00 0.00 0.00 60 1010.0
20260506103028 65 200 2.6 8.7 0.00 0.00 0.00 60 1009.9
20260506101524 64 215 1.7 7.0 0.00 0.00 0.00 60 1009.8
20260506100031 65 225 2.6 7.8 0.00 0.00 0.00 60 1009.8
20260506094519 65 172 1.7 7.0 0.00 0.00 0.00 59 1010.1
20260506093019 65 207 2.6 7.0 0.00 0.00 0.00 60 1010.0
20260506091519 65 209 1.7 7.0 0.00 0.00 0.00 60 1009.9
20260506090017 65 216 2.6 8.7 0.00 0.00 0.00 59 1010.0
20260506084516 65 229 1.7 7.0 0.00 0.00 0.00 59 1009.9
20260506083015 65 236 0.9 9.6 0.00 0.00 0.00 59 1010.1